Location: Blue Mountain Vista Observatory
(40.6992°N, 75.9422°W)
Time: 06:18:30
(UTC-04:00)

Amateur Radio Satellites - All Passes

Search period start: 27 March 2015 05:48
Search period end: 28 March 2015 05:48
Location: Blue Mountain Vista Observatory, 40.6992°N, 75.9422°W

Satellite Date Start Highest point End Downlink Frequencies (MHz)
Time Altitude Azimuth
SO-50 27 Mar 05:51:30 05:55:51 31° 246° (WSW) 06:00:06 436.795
HORYU 2 27 Mar 05:59:46 06:02:44 17° 295° (WNW) 06:05:33 437.375
AIST 1 27 Mar 06:00:49 06:04:16 22° 288° (WNW) 06:07:38
M-CUBED/EXP-1 PRIME 27 Mar 06:01:42 06:05:05 28° 261° (W) 06:08:43 437.505
GONETS M04 27 Mar 06:10:52 06:18:17 30° 67° (ENE) 06:25:55
Cubesat XI-IV 27 Mar 06:23:14 06:26:59 20° 91° (E) 06:30:53 437.490
CUTE-I 27 Mar 06:23:52 06:27:37 20° 91° (E) 06:31:31 437.470
STRAND 1 27 Mar 06:31:31 06:36:12 37° 69° (ENE) 06:40:57 437.568
RS-15 27 Mar 06:32:27 06:43:10 44° 250° (WSW) 06:54:05 29.354- 29.394
ISS 27 Mar 06:37:58 06:41:12 84° 36° (NE) 06:44:25 145.825
CUBESAT XI-V 27 Mar 06:48:59 06:53:43 88° 262° (W) 06:58:28 437.345
AO-7 27 Mar 06:49:29 06:56:48 35° 300° (WNW) 07:03:59 29.400- 29.500
JAS-2 27 Mar 06:50:03 06:56:41 30° 297° (WNW) 07:02:48 435.910
PRISM 27 Mar 07:10:11 07:14:20 56° 260° (W) 07:18:30 437.425
VERMONT LUNAR 27 Mar 07:19:20 07:22:31 41° 160° (SSE) 07:25:42 437.305
PHONESAT 2.4 27 Mar 07:38:02 07:41:08 29° 155° (SSE) 07:44:15 2401.200-2431.200
Cubesat XI-IV 27 Mar 08:02:16 08:07:27 51° 289° (WNW) 08:12:34 437.490
CUTE-I 27 Mar 08:02:53 08:08:03 51° 289° (WNW) 08:13:09 437.470
GONETS M04 27 Mar 08:07:06 08:15:45 60° 268° (W) 08:24:19
STRAND 1 27 Mar 08:11:10 08:15:30 26° 266° (W) 08:19:46 437.568
CUSAT 1 27 Mar 08:16:59 08:20:52 47° 79° (E) 08:26:02 437.405
ISS 27 Mar 08:16:59 08:17:12 10° 231° (SW) 08:17:16 145.825
BRITE-PL 27 Mar 08:33:20 08:36:02 17° 92° (E) 08:38:57 437.365/2234.400
DANDE 27 Mar 08:50:22 08:54:09 79° 82° (E) 08:59:15 436.750
VERMONT LUNAR 27 Mar 08:56:45 09:00:07 87° 177° (S) 09:03:31 437.305
CANX-2 27 Mar 09:03:57 09:07:23 23° 93° (E) 09:10:53 2200.000
PHONESAT 2.4 27 Mar 09:15:44 09:19:16 78° 171° (S) 09:22:49 2401.200-2431.200
CUTE 1.7 + AOD 2 27 Mar 09:18:01 09:21:48 30° 95° (E) 09:25:38 437.475
HO-68 27 Mar 09:29:08 09:36:02 48° 99° (E) 09:42:57 435.675
GOMX 1 27 Mar 09:32:13 09:36:20 51° 99° (E) 09:40:40 467.674
CINEMA 3 27 Mar 09:32:31 09:35:31 18° 92° (E) 09:38:45 145.822/145.860
DOVE 4 27 Mar 09:33:22 09:37:18 35° 97° (E) 09:41:26 437.250
DELFI C3 27 Mar 09:49:07 09:51:04 13° 90° (E) 09:53:13 145.870
SEEDS 27 Mar 09:50:47 09:55:02 59° 100° (E) 09:59:16 437.485
AAUSAT CUBESAT 2 27 Mar 09:52:13 09:56:15 42° 98° (E) 10:00:18 437.432
ANTELSAT 27 Mar 09:52:45 09:55:40 19° 67° (ENE) 09:58:44 437.575/2403.000
Oscar 11 27 Mar 09:58:51 10:02:21 24° 94° (E) 10:05:56 145.826/435.025
CUSAT 1 27 Mar 10:01:06 10:03:41 15° 265° (W) 10:06:25 437.405
CUBEBUG 2 27 Mar 10:01:26 10:04:42 21° 93° (E) 10:08:08 437.445
UWE-3 27 Mar 10:02:08 10:04:58 17° 92° (E) 10:08:01 435.000/436.395/437.385
FUNcube-1 27 Mar 10:05:04 10:07:23 14° 90° (E) 10:09:56 145.935
BRITE-PL 27 Mar 10:10:56 10:14:47 37° 288° (WNW) 10:18:44 437.365/2234.400
ZACube-1 27 Mar 10:16:17 10:19:26 20° 93° (E) 10:22:45 437.345
COMPASS 1 27 Mar 10:17:07 10:21:24 84° 286° (WNW) 10:25:39 437.405
QB50P1 27 Mar 10:21:23 10:24:24 20° 68° (ENE) 10:27:32 145.935-145.965
DUCHIFAT 1 27 Mar 10:24:37 10:27:44 21° 68° (ENE) 10:30:57 145.980
VERMONT LUNAR 27 Mar 10:34:29 10:37:50 65° 194° (SSW) 10:41:12 437.305
QB50P2 27 Mar 10:34:40 10:38:14 28° 70° (ENE) 10:41:53 145.880/145.840
CANX-2 27 Mar 10:39:33 10:43:21 30° 289° (WNW) 10:47:05 2200.000
UNISAT 6 27 Mar 10:47:27 10:51:42 74° 75° (ENE) 10:56:00 437.425
BEESAT 2 27 Mar 10:48:45 10:52:15 28° 114° (ESE) 10:55:51 435.950
PHONESAT 2.4 27 Mar 10:54:04 10:57:37 81° 189° (S) 11:01:11 2401.200-2431.200
CUTE 1.7 + AOD 2 27 Mar 10:54:09 10:57:37 23° 291° (WNW) 11:01:00 437.475
TIGRISAT 27 Mar 10:58:55 11:03:10 84° 257° (WSW) 11:07:28 435.000
POPSAT HIP 1 27 Mar 11:03:25 11:07:33 57° 74° (ENE) 11:11:42 437.405
UKube-1 27 Mar 11:03:53 11:08:02 45° 99° (E) 11:12:11 .
50 SAT 27 Mar 11:06:46 11:09:54 22° 94° (E) 11:13:06 437.505
CINEMA 3 27 Mar 11:08:50 11:12:55 39° 288° (WNW) 11:17:07 145.822/145.860
DX 1 27 Mar 11:10:39 11:14:56 57° 101° (E) 11:19:12 434.975-435.025
DOVE 4 27 Mar 11:11:44 11:14:56 20° 291° (WNW) 11:18:08 437.250
GOMX 1 27 Mar 11:11:54 11:14:13 14° 293° (WNW) 11:16:23 467.674
NANOSAT C BR1 27 Mar 11:15:00 11:19:13 78° 76° (ENE) 11:23:27 145.865
BUGSAT 1 27 Mar 11:16:04 11:20:10 57° 75° (ENE) 11:24:15 437.445
POLYITAN 1 27 Mar 11:16:56 11:21:09 84° 78° (ENE) 11:25:24 437.675
HO-68 27 Mar 11:17:13 11:23:35 34° 297° (WNW) 11:29:48 435.675
DELFI C3 27 Mar 11:22:37 11:26:35 47° 286° (WNW) 11:30:30 145.870
HUMSAT D 27 Mar 11:26:30 11:30:42 59° 100° (E) 11:34:55 437.325/437.525
BEESAT 3 27 Mar 11:28:08 11:32:14 89° 299° (WNW) 11:36:24 437.485
ANTELSAT 27 Mar 11:28:16 11:32:14 37° 263° (W) 11:36:15 437.575/2403.000
SEEDS 27 Mar 11:28:23 11:30:24 13° 295° (WNW) 11:32:14 437.485
AAUSAT CUBESAT 2 27 Mar 11:28:50 11:31:36 17° 293° (WNW) 11:34:13 437.432
Oscar 11 27 Mar 11:34:43 11:38:34 30° 290° (WNW) 11:42:20 145.826/435.025
CUBEBUG 2 27 Mar 11:37:30 11:41:31 35° 288° (WNW) 11:45:36 437.445
UWE-3 27 Mar 11:37:36 11:41:45 42° 287° (WNW) 11:45:58 435.000/436.395/437.385
FUNcube-1 27 Mar 11:39:50 11:44:03 50° 286° (WNW) 11:48:21 145.935
VELOX 1 27 Mar 11:40:36 11:44:55 51° 100° (E) 11:49:12 145.980
AISAT 27 Mar 11:44:08 11:48:29 58° 101° (E) 11:52:50 437.250
AIST 2 27 Mar 11:45:48 11:49:46 40° 116° (ESE) 11:53:49 435.215
CUBEBUG 1 27 Mar 11:48:23 11:52:06 28° 95° (E) 11:55:51 437.445
ZACube-1 27 Mar 11:51:55 11:55:56 36° 288° (WNW) 12:00:00 437.345
QB50P1 27 Mar 11:56:12 12:00:05 34° 263° (W) 12:03:57 145.935-145.965
DUCHIFAT 1 27 Mar 11:59:35 12:03:25 32° 264° (W) 12:07:12 145.980
ESTCUBE 1 27 Mar 12:05:20 12:09:43 49° 99° (E) 12:14:06 437.505/2401.250
SPROUT 27 Mar 12:08:56 12:10:19 12° 88° (E) 12:11:58 437.525
QB50P2 27 Mar 12:10:40 12:14:09 24° 266° (W) 12:17:34 145.880/145.840
VERMONT LUNAR 27 Mar 12:12:38 12:15:15 20° 208° (SSW) 12:17:49 437.305
BEESAT 2 27 Mar 12:26:45 12:30:23 28° 312° (NW) 12:34:00 435.950
PHONESAT 2.4 27 Mar 12:32:34 12:35:47 32° 204° (SSW) 12:39:00 2401.200-2431.200
UKube-1 27 Mar 12:41:03 12:43:53 17° 294° (WNW) 12:46:33 .
50 SAT 27 Mar 12:41:22 12:44:50 28° 289° (WNW) 12:48:17 437.505
POPSAT HIP 1 27 Mar 12:42:16 12:43:53 12° 271° (W) 12:45:15 437.405
DX 1 27 Mar 12:48:30 12:50:46 14° 296° (WNW) 12:52:50 434.975-435.025
BUGSAT 1 27 Mar 12:54:35 12:56:05 11° 271° (W) 12:57:20 437.445
YUBILEINY 27 Mar 13:00:21 13:06:17 22° 81° (E) 13:12:41 435.215
Oscar 19 27 Mar 13:00:58 13:05:31 34° 69° (ENE) 13:10:09 437.125/150
HUMSAT D 27 Mar 13:04:03 13:06:03 13° 295° (WNW) 13:07:52 437.325/437.525
BEESAT 3 27 Mar 13:09:12 13:10:58 12° 321° (NW) 13:12:37 437.485
VELOX 1 27 Mar 13:18:28 13:21:07 15° 295° (WNW) 13:23:36 145.980
AISAT 27 Mar 13:22:21 13:24:40 14° 296° (WNW) 13:26:48 437.250
SWISSCUBE 27 Mar 13:22:52 13:24:13 11° 88° (E) 13:25:52 437.505
CUBEBUG 1 27 Mar 13:24:49 13:28:25 25° 291° (WNW) 13:31:54 437.445
AIST 2 27 Mar 13:25:05 13:28:33 23° 314° (NW) 13:31:57 435.215
BEESAT 27 Mar 13:26:17 13:27:36 11° 87° (E) 13:29:15 436.000
TISAT 1 27 Mar 13:41:02 13:45:15 73° 283° (WNW) 13:49:24 437.305
SPROUT 27 Mar 13:42:40 13:46:53 58° 285° (WNW) 13:51:04 437.525
ESTCUBE 1 27 Mar 13:43:19 13:46:15 17° 295° (WNW) 13:49:00 437.505/2401.250
ITAMSAT 1 27 Mar 14:00:51 14:05:43 42° 70° (ENE) 14:10:38 435.822/435.867
AO-7 27 Mar 14:06:47 14:11:15 17° 50° (NE) 14:16:06 29.400- 29.500
ITUPSAT 1 27 Mar 14:09:17 14:13:33 32° 96° (E) 14:17:51 437.325
O/OREOS (USA 219) 27 Mar 14:18:59 14:23:14 37° 61° (ENE) 14:27:27 437.305
PCSat 27 Mar 14:18:59 14:21:23 13° 105° (ESE) 14:24:04 145.827
Gurwin Techsat 1B 27 Mar 14:35:49 14:41:06 70° 74° (ENE) 14:46:25 435.225
Oscar 19 27 Mar 14:40:33 14:44:56 28° 265° (W) 14:49:16 437.125/150
YUBILEINY 27 Mar 14:53:27 15:02:16 78° 279° (W) 15:11:09 435.215
SWISSCUBE 27 Mar 14:57:55 15:02:43 73° 286° (WNW) 15:07:28 437.505
BEESAT 27 Mar 15:01:18 15:06:06 73° 285° (WNW) 15:10:52 436.000
JAS-2 27 Mar 15:16:16 15:21:48 27° 61° (ENE) 15:27:57 435.910
HORYU 2 27 Mar 15:20:10 15:24:19 42° 72° (ENE) 15:28:33 437.375
ITAMSAT 1 27 Mar 15:41:12 15:45:25 24° 267° (W) 15:49:32 435.822/435.867
KKS-1 27 Mar 15:46:20 15:50:46 65° 101° (ESE) 15:55:11 437.445
ITUPSAT 1 27 Mar 15:47:19 15:51:23 27° 292° (WNW) 15:55:20 437.325
AO-7 27 Mar 15:54:33 16:02:46 71° 69° (ENE) 16:11:03 29.400- 29.500
PCSat 27 Mar 15:58:46 16:04:11 79° 298° (WNW) 16:09:40 145.827
O/OREOS (USA 219) 27 Mar 15:59:00 16:02:26 20° 258° (WSW) 16:05:41 437.305
AIST 1 27 Mar 16:07:08 16:11:28 89° 277° (W) 16:15:46
Gurwin Techsat 1B 27 Mar 16:18:46 16:21:42 14° 272° (W) 16:24:21 435.225
STARS 27 Mar 16:23:42 16:28:06 77° 285° (WNW) 16:32:30 437.465
YUBILEINY 27 Mar 16:55:44 17:00:57 16° 303° (WNW) 17:05:38 435.215
HORYU 2 27 Mar 16:58:14 17:01:14 17° 268° (W) 17:04:07 437.375
JAS-2 27 Mar 16:59:37 17:06:16 62° 261° (W) 17:13:44 435.910
MOZHAYETS 4 27 Mar 17:05:39 17:09:33 26° 94° (E) 17:13:29
AUBIESAT-1 27 Mar 17:22:10 17:24:13 13° 93° (E) 17:26:31 437.475
KKS-1 27 Mar 17:24:53 17:26:57 13° 296° (WNW) 17:28:48 437.445
M-CUBED/EXP-1 PRIME 27 Mar 17:43:13 17:47:08 25° 98° (E) 17:51:05 437.505
Cubesat XI-IV 27 Mar 17:44:41 17:49:23 33° 68° (ENE) 17:54:11 437.490
CUTE-I 27 Mar 17:45:10 17:49:52 33° 68° (ENE) 17:54:39 437.470
PCSat 27 Mar 17:45:32 17:48:35 15° 321° (NW) 17:51:28 145.827
AO-7 27 Mar 17:49:43 17:56:21 25° 268° (W) 18:02:41 29.400- 29.500
SO-50 27 Mar 18:28:58 18:29:38 10° 107° (ESE) 18:30:36 436.795
MOZHAYETS 4 27 Mar 18:42:42 18:46:47 30° 290° (WNW) 18:50:48
STRAND 1 27 Mar 18:44:23 18:46:10 12° 88° (E) 18:48:17 437.568
RS-15 27 Mar 18:44:33 18:53:40 34° 107° (ESE) 19:03:11 29.354- 29.394
CUBESAT XI-V 27 Mar 18:46:48 18:50:29 24° 93° (E) 18:54:14 437.345
PRISM 27 Mar 18:53:54 18:56:59 20° 93° (E) 19:00:08 437.425
AUBIESAT-1 27 Mar 18:54:44 18:59:35 72° 290° (WNW) 19:04:19 437.475
BEESAT 2 27 Mar 19:08:36 19:11:35 19° 44° (NE) 19:14:39 435.950
GONETS M04 27 Mar 19:12:01 19:19:25 34° 86° (E) 19:27:03
M-CUBED/EXP-1 PRIME 27 Mar 19:17:35 19:22:06 39° 294° (WNW) 19:26:33 437.505
Cubesat XI-IV 27 Mar 19:24:41 19:29:29 32° 264° (W) 19:34:15 437.490
CUTE-I 27 Mar 19:25:09 19:29:56 32° 264° (W) 19:34:41 437.470
BRITE-PL 27 Mar 19:43:58 19:47:34 22° 70° (ENE) 19:51:06 437.365/2234.400
BEESAT 3 27 Mar 19:47:36 19:51:37 49° 54° (NE) 19:55:33 437.485
CANX-2 27 Mar 19:57:34 20:00:14 17° 67° (ENE) 20:03:04 2200.000
HO-68 27 Mar 19:57:38 20:03:56 36° 64° (ENE) 20:10:21 435.675
SO-50 27 Mar 20:04:55 20:09:31 84° 303° (WNW) 20:14:20 436.795
AIST 2 27 Mar 20:08:01 20:11:38 27° 47° (NE) 20:15:16 435.215
CUTE 1.7 + AOD 2 27 Mar 20:11:16 20:14:26 22° 68° (ENE) 20:17:44 437.475
STRAND 1 27 Mar 20:20:56 20:26:04 76° 285° (WNW) 20:31:09 437.568
CUBESAT XI-V 27 Mar 20:23:50 20:28:01 33° 290° (WNW) 20:32:08 437.345
PRISM 27 Mar 20:28:48 20:32:34 32° 290° (WNW) 20:36:15 437.425
CINEMA 3 27 Mar 20:35:13 20:37:43 16° 67° (ENE) 20:40:21 145.822/145.860
DOVE 4 27 Mar 20:39:13 20:43:10 34° 72° (ENE) 20:47:02 437.250
GOMX 1 27 Mar 20:40:16 20:44:43 54° 75° (ENE) 20:48:57 467.674
SEEDS 27 Mar 20:42:44 20:46:38 39° 73° (ENE) 20:50:37 437.485
AAUSAT CUBESAT 2 27 Mar 20:43:12 20:46:45 28° 70° (ENE) 20:50:23 437.432
BEESAT 2 27 Mar 20:46:02 20:50:01 46° 243° (WSW) 20:53:55 435.950
Oscar 11 27 Mar 20:54:02 20:57:00 19° 67° (ENE) 21:00:06 145.826/435.025
RS-15 27 Mar 20:54:32 21:05:23 67° 308° (NW) 21:16:27 29.354- 29.394
UWE-3 27 Mar 21:00:34 21:02:29 13° 65° (ENE) 21:04:35 435.000/436.395/437.385
CUBEBUG 2 27 Mar 21:00:41 21:03:11 16° 67° (ENE) 21:05:51 437.445
FUNcube-1 27 Mar 21:02:38 21:03:38 11° 64° (ENE) 21:04:50 145.935
GONETS M04 27 Mar 21:07:34 21:16:00 51° 285° (WNW) 21:24:26
COMPASS 1 27 Mar 21:08:02 21:12:08 63° 75° (ENE) 21:16:19 437.405
ZACube-1 27 Mar 21:13:20 21:15:37 15° 66° (ENE) 21:18:03 437.345
BRITE-PL 27 Mar 21:21:33 21:26:00 35° 263° (W) 21:30:08 437.365/2234.400
BEESAT 3 27 Mar 21:26:53 21:29:18 15° 249° (WSW) 21:31:33 437.485
CUSAT 1 27 Mar 21:28:10 21:31:06 48° 98° (E) 21:33:42 437.405
CANX-2 27 Mar 21:31:53 21:35:54 41° 262° (W) 21:39:57 2200.000
HO-68 27 Mar 21:44:43 21:51:32 45° 261° (W) 21:58:22 435.675
CUTE 1.7 + AOD 2 27 Mar 21:46:25 21:50:13 32° 264° (W) 21:54:01 437.475
AIST 2 27 Mar 21:46:28 21:50:17 31° 245° (WSW) 21:53:58 435.215
SO-50 27 Mar 21:48:14 21:50:55 14° 324° (NW) 21:53:28 436.795
50 SAT 27 Mar 21:54:09 21:55:58 13° 66° (ENE) 21:57:57 437.505
UKube-1 27 Mar 21:58:34 22:02:33 37° 71° (ENE) 22:06:36 .
DANDE 27 Mar 22:05:12 22:08:29 58° 281° (W) 22:11:13 436.750
DX 1 27 Mar 22:05:54 22:10:05 48° 73° (ENE) 22:14:19 434.975-435.025
DELFI C3 27 Mar 22:09:43 22:13:46 81° 257° (WSW) 22:17:53 145.870
CINEMA 3 27 Mar 22:10:39 22:14:41 42° 262° (W) 22:18:39 145.822/145.860
DOVE 4 27 Mar 22:17:51 22:21:05 19° 267° (W) 22:24:08 437.250
HUMSAT D 27 Mar 22:18:23 22:22:10 38° 72° (ENE) 22:26:01 437.325/437.525
AAUSAT CUBESAT 2 27 Mar 22:19:02 22:22:24 23° 266° (W) 22:25:43 437.432
SEEDS 27 Mar 22:19:52 22:22:40 17° 269° (W) 22:25:22 437.485
GOMX 1 27 Mar 22:20:59 22:23:13 13° 270° (W) 22:25:11 467.674
Oscar 11 27 Mar 22:28:54 22:32:56 38° 263° (W) 22:36:59 145.826/435.025
UWE-3 27 Mar 22:34:36 22:38:39 52° 261° (W) 22:42:44 435.000/436.395/437.385
FUNcube-1 27 Mar 22:35:23 22:39:30 65° 259° (W) 22:43:38 145.935
CUBEBUG 2 27 Mar 22:35:41 22:39:38 41° 262° (W) 22:43:34 437.445
VELOX 1 27 Mar 22:37:58 22:42:12 45° 72° (ENE) 22:46:27 145.980
UNISAT 6 27 Mar 22:40:37 22:43:28 17° 91° (E) 22:46:32 437.425
AISAT 27 Mar 22:41:41 22:45:59 51° 73° (ENE) 22:50:19 437.250
CUBEBUG 1 27 Mar 22:44:36 22:48:06 24° 69° (ENE) 22:51:41 437.445
COMPASS 1 27 Mar 22:47:33 22:48:22 10° 273° (W) 22:48:54 437.405
ZACube-1 27 Mar 22:47:41 22:51:41 45° 262° (W) 22:55:41 437.345
TIGRISAT 27 Mar 22:51:23 22:54:47 21° 93° (E) 22:58:21 435.000
NANOSAT C BR1 27 Mar 23:02:14 23:04:02 13° 89° (E) 23:06:03 145.865
POLYITAN 1 27 Mar 23:04:21 23:06:31 14° 90° (E) 23:08:53 437.675
ESTCUBE 1 27 Mar 23:04:39 23:08:57 44° 72° (ENE) 23:13:18 437.505/2401.250
PCSat 27 Mar 23:05:15 23:08:02 14° 39° (NE) 23:10:59 145.827
RS-15 27 Mar 23:11:45 23:20:30 25° 338° (NNW) 23:29:16 29.354- 29.394
ISS 27 Mar 23:17:00 23:19:50 28° 135° (SE) 23:22:42 145.825
ANTELSAT 27 Mar 23:19:57 23:24:19 43° 98° (E) 23:28:45 437.575/2403.000
50 SAT 27 Mar 23:26:45 23:30:32 46° 261° (W) 23:34:21 437.505
UKube-1 27 Mar 23:35:44 23:38:53 19° 267° (W) 23:41:55 .
QB50P1 27 Mar 23:41:28 23:45:23 36° 98° (E) 23:49:18 145.935-145.965
DX 1 27 Mar 23:44:04 23:46:40 15° 269° (W) 23:49:06 434.975-435.025
DUCHIFAT 1 27 Mar 23:44:26 23:48:22 38° 98° (E) 23:52:19 145.980
QB50P2 27 Mar 23:55:26 23:59:36 54° 100° (E) 00:03:46 145.880/145.840
HUMSAT D 27 Mar 23:55:32 23:58:10 16° 269° (W) 00:00:41 437.325/437.525
VELOX 1 28 Mar 00:16:07 00:19:02 17° 269° (W) 00:21:48 145.980
UNISAT 6 28 Mar 00:16:10 00:20:33 47° 287° (WNW) 00:25:00 437.425
AISAT 28 Mar 00:20:24 00:22:57 15° 270° (W) 00:25:20 437.250
CUBEBUG 1 28 Mar 00:20:26 00:24:22 31° 264° (W) 00:28:16 437.445
POPSAT HIP 1 28 Mar 00:24:39 00:28:52 71° 285° (WNW) 00:33:04 437.405
TIGRISAT 28 Mar 00:27:28 00:31:40 37° 289° (WNW) 00:35:54 435.000
SWISSCUBE 28 Mar 00:29:03 00:31:30 14° 63° (ENE) 00:34:09 437.505
BEESAT 28 Mar 00:32:23 00:34:48 14° 63° (ENE) 00:37:26 436.000
TISAT 1 28 Mar 00:32:47 00:37:01 80° 76° (ENE) 00:41:15 437.305
BUGSAT 1 28 Mar 00:34:02 00:38:04 77° 284° (WNW) 00:42:05 437.445
NANOSAT C BR1 28 Mar 00:36:10 00:40:17 52° 286° (WNW) 00:44:23 145.865
SPROUT 28 Mar 00:36:15 00:40:33 81° 258° (WSW) 00:44:52 437.525
POLYITAN 1 28 Mar 00:38:41 00:42:47 48° 287° (WNW) 00:46:52 437.675
ESTCUBE 1 28 Mar 00:42:59 00:46:06 17° 269° (W) 00:49:04 437.505/2401.250
PCSat 28 Mar 00:47:00 00:52:27 77° 60° (ENE) 00:57:53 145.827
ISS 28 Mar 00:53:10 00:56:11 34° 332° (NNW) 00:59:12 145.825
ANTELSAT 28 Mar 00:57:33 01:00:51 19° 293° (WNW) 01:04:02 437.575/2403.000
YUBILEINY 28 Mar 01:04:12 01:12:46 53° 75° (ENE) 01:21:19 435.215
Oscar 19 28 Mar 01:14:42 01:16:27 12° 87° (E) 01:18:31 437.125/150
ITUPSAT 1 28 Mar 01:15:50 01:20:13 36° 70° (ENE) 01:24:39 437.325
QB50P1 28 Mar 01:17:59 01:21:03 19° 293° (WNW) 01:23:59 145.935-145.965
DUCHIFAT 1 28 Mar 01:21:01 01:23:58 18° 293° (WNW) 01:26:47 145.980
RS-15 28 Mar 01:30:12 01:38:12 21° 13° (NNE) 01:46:36 29.354- 29.394
QB50P2 28 Mar 01:32:53 01:35:07 14° 295° (WNW) 01:37:09 145.880/145.840
SWISSCUBE 28 Mar 02:04:06 02:08:53 66° 259° (W) 02:13:41 437.505
BEESAT 28 Mar 02:07:24 02:12:10 67° 259° (W) 02:16:57 436.000
ITAMSAT 1 28 Mar 02:15:26 02:18:08 15° 89° (E) 02:21:06 435.822/435.867
ISS 28 Mar 02:31:39 02:33:20 13° 351° (N) 02:35:00 145.825
PCSat 28 Mar 02:32:27 02:35:17 14° 255° (WSW) 02:37:50 145.827
KKS-1 28 Mar 02:44:10 02:48:30 56° 73° (ENE) 02:52:52 437.445
Oscar 19 28 Mar 02:51:19 02:56:30 79° 285° (WNW) 03:01:41 437.125/150
Gurwin Techsat 1B 28 Mar 02:52:49 02:57:20 28° 94° (E) 03:01:54 435.225
ITUPSAT 1 28 Mar 02:54:20 02:58:13 24° 266° (W) 03:02:02 437.325
SO-50 28 Mar 02:57:33 03:00:14 15° 37° (NE) 03:03:03 436.795
YUBILEINY 28 Mar 03:01:38 03:09:17 33° 275° (W) 03:16:41 435.215
STARS 28 Mar 03:20:13 03:24:35 89° 77° (ENE) 03:29:00 437.465
RS-15 28 Mar 03:43:37 03:54:29 48° 44° (NE) 04:05:55 29.354- 29.394
ITAMSAT 1 28 Mar 03:53:03 03:58:12 65° 287° (WNW) 04:03:19 435.822/435.867
AO-7 28 Mar 03:57:39 04:03:38 22° 91° (E) 04:09:57 29.400- 29.500
MOZHAYETS 4 28 Mar 04:07:35 04:11:17 25° 68° (ENE) 04:15:06
ISS 28 Mar 04:08:54 04:10:46 14° 11° (NNE) 04:12:39 145.825
AUBIESAT-1 28 Mar 04:10:17 04:12:28 15° 58° (ENE) 04:14:55 437.475
JAS-2 28 Mar 04:10:31 04:16:32 25° 88° (E) 04:22:27 435.910
KKS-1 28 Mar 04:23:23 04:25:36 13° 271° (W) 04:27:32 437.445
O/OREOS (USA 219) 28 Mar 04:30:39 04:35:01 46° 107° (ESE) 04:39:27 437.305
M-CUBED/EXP-1 PRIME 28 Mar 04:31:54 04:35:14 26° 63° (ENE) 04:38:53 437.505
Gurwin Techsat 1B 28 Mar 04:32:32 04:37:23 36° 291° (WNW) 04:42:10 435.225
Oscar 19 28 Mar 04:34:20 04:35:07 10° 301° (WNW) 04:35:35 437.125/150
AIST 1 28 Mar 04:36:01 04:40:20 55° 94° (E) 04:44:39
SO-50 28 Mar 04:36:40 04:41:38 80° 56° (NE) 04:46:34 436.795
HORYU 2 28 Mar 04:47:56 04:52:28 89° 284° (WNW) 04:56:59 437.375
GONETS M04 28 Mar 05:22:58 05:27:52 16° 58° (ENE) 05:33:18
